This demonstration page uses our WeatherBlox Daily Observations layout. Learn more.

Left ArrowRight Arrow

38.88101, -77.10428

Hourly Observations for May 13, 2016

Temp ( °F °C ) Dew Point ( °F °C ) Humidity (%) Winds ( mph kmh ) Pressure ( in mb ) Visibility ( mi km ) Precip ( " mm )
12:39 am 00:39 Cloudy 63 17.2 60 15.6 90 90 S 5 7 29.97 1015 10 16 N/A
12:52 am 00:52 Cloudy 63 17.2 60 15.6 90 90 S 5 7 29.97 1015 10 16 N/A
1:01 am 01:01 Cloudy 62 16.7 60 15.6 93 93 SSW 3 6 29.97 1015 10 16 N/A
1:39 am 01:39 Cloudy 63 17.2 60 15.6 90 90 S 6 9 29.94 1014 10 16 N/A
1:52 am 01:52 Cloudy 62 16.7 60 15.6 93 93 SE 7 11 29.93 1014 10 16 N/A
2:35 am 02:35 Cloudy 63 17.2 60 15.6 90 90 SSE 6 9 29.91 1013 10 16 N/A
2:52 am 02:52 Cloudy 63 17.2 60 15.6 90 90 S 3 6 29.91 1013 10 16 N/A
3:14 am 03:14 Cloudy 63 17 61 16 94 94 N N/A 29.91 1013 10 16 N/A
3:52 am 03:52 Cloudy 63 17.2 60 15.6 90 90 SSE 6 9 29.89 1012 10 16 N/A
4:52 am 04:52 Cloudy with Mist and Fog 62 16.7 60 15.6 93 93 S 8 13 29.88 1012 6 10 N/A
5:05 am 05:05 Cloudy with Mist and Fog 63 17.2 60 15.6 90 90 S 8 13 29.88 1012 6 10 N/A
5:35 am 05:35 Cloudy with Mist and Fog 63 17.2 61 16.1 93 93 S 7 11 29.88 1012 5 8 N/A
5:52 am 05:52 Cloudy with Mist and Fog 63 17.2 61 16.1 93 93 S 9 15 29.87 1012 5 8 N/A
6:06 am 06:06 Cloudy with Mist and Fog 63 17 61 16 94 94 S 9 15 29.88 1012 5 8 N/A
6:29 am 06:29 Cloudy with Mist and Fog 63 17.2 61 16.1 93 93 S 9 15 29.88 1012 5 8 N/A
6:52 am 06:52 Cloudy with Mist and Fog 63 17.2 61 16.1 93 93 S 9 15 29.88 1012 5 8 N/A
7:52 am 07:52 Cloudy with Mist and Fog 63 17.2 61 16.1 93 93 S 8 13 29.88 1012 5 8 N/A
8:52 am 08:52 Cloudy with Mist and Fog 64 17.8 62 16.7 93 93 S 7 11 29.88 1012 4 6 N/A
9:49 am 09:49 Cloudy with Mist and Fog 64 18 63 17 94 94 SSE 7 11 29.88 1012 6 10 N/A
9:52 am 09:52 Cloudy with Mist and Fog 64 17.8 62 16.7 93 93 S 6 9 29.86 1011 6 10 N/A
10:46 am 10:46 Cloudy with Heavy Rain 66 19 63 17 88 88 S 5 7 29.88 1012 3 4 N/A
10:52 am 10:52 Cloudy with Light Rain 65 18.3 63 17.2 93 93 S 5 7 29.86 1011 4 6 0.03 0.76
10:56 am 10:56 Cloudy with Light Rain 64 18 63 17 94 94 S 7 11 29.88 1012 5 8 N/A
11:11 am 11:11 Cloudy with Light Rain 65 18.3 63 17.2 93 93 S 6 9 29.88 1012 6 10 N/A
11:18 am 11:18 Cloudy with Light Rain 64 18 63 17 94 94 S 7 11 29.88 1012 3 5 N/A
11:30 am 11:30 Cloudy with Light Rain 64 18 63 17 94 94 S 7 11 29.85 1011 4 6 N/A
11:52 am 11:52 Cloudy with Light Rain 66 18.9 64 17.8 93 93 S 5 7 29.86 1011 3 5 0.04 1.02
12:00 pm 12:00 Cloudy with Light Rain 64 18 64 18 100 100 S 6 9 29.88 1012 4 6 N/A
12:52 pm 12:52 Cloudy with Light Rain 68 20 66 18.9 93 93 SSW 6 9 29.86 1011 5 8 0.01 0.25
1:10 pm 13:10 Cloudy 70 21 66 19 88 88 WSW 9 15 29.85 1011 7 11 N/A
1:33 pm 13:33 Cloudy 70 21.1 66 18.9 87 87 SW 6 9 29.85 1011 8 13 N/A
1:52 pm 13:52 Cloudy 71 21.7 66 18.9 84 84 SSW 6 9 29.84 1011 9 14 N/A
2:07 pm 14:07 Cloudy 72 22.2 66 18.9 82 82 W 6 9 29.85 1011 10 16 N/A
2:35 pm 14:35 Cloudy 72 22.2 63 17.2 73 73 NW 14 22 29.83 1010 10 16 N/A
2:52 pm 14:52 Mostly Cloudy 72 22.2 62 16.7 71 71 NW 16 26 29.84 1011 10 16 N/A
3:52 pm 15:52 Mostly Cloudy 75 23.9 57 13.9 54 54 NW 14 22 29.83 1010 10 16 N/A
4:52 pm 16:52 Mostly Cloudy 76 24.4 53 11.7 45 45 NW 12 19 29.82 1010 10 16 N/A
5:52 pm 17:52 Partly Cloudy 76 24.4 50 10 40 40 NW 16 26 29.83 1010 10 16 N/A
6:52 pm 18:52 Mostly Sunny 75 23.9 49 9.4 40 40 NW 14 22 29.83 1010 10 16 N/A
7:52 pm 19:52 Mostly Sunny 75 23.9 48 8.9 39 39 WNW 7 11 29.84 1010 10 16 N/A
8:52 pm 20:52 Mostly Clear 70 21.1 48 8.9 46 46 W 5 7 29.85 1011 10 16 N/A
9:52 pm 21:52 Clear 69 20.6 48 8.9 47 47 W 8 13 29.87 1011 10 16 N/A
10:52 pm 22:52 Clear 66 18.9 48 8.9 52 52 W 8 13 29.88 1012 10 16 N/A
11:52 pm 23:52 Clear 62 16.7 53 11.7 73 73 N N/A 29.88 1012 10 16 N/A

Powered by AerisWeather